Wind_Gust
22 21 21 21 21 21 21 21 21 21 21 21 21 20 20 21 22 24 23 23 24 24 24 24 23 24 24 24 25 23 20 17 19 19 18 30 24 19 24 26 27 22 12 3 3 3 6 6 4 2 6 7 10 8 10 7 7 9 22 23 25 15 18 15 20 22 10 16 10 7 13 11 10 11 13 2 9 7 7 13 7 19 17 18 24 26 26 25
21 21 21 21 21 21 22 21 21 22 21 22 22 22 22 22 22 22 24 23 24 24 24 24 24 24 24 24 24 22 18 14 21 19 28 29 25 25 24 25 26 23 14 7 5 3 3 4 2 5 9 10 3 11 8 17 11 20 17 20 37 19 17 17 16 12 14 11 9 13 5 12 15 6 10 8 2 4 10 10 14 20 21 23 24 26 26 26
21 22 21 21 22 21 21 22 22 21 22 22 22 22 22 22 22 22 21 22 23 23 23 24 24 24 24 24 22 22 15 20 17 22 26 9 18 13 19 24 24 22 17 11 6 8 9 4 2 5 7 9 8 12 9 20 18 16 14 27 28 8 9 12 10 14 13 9 15 14 6 8 6 9 5 6 4 2 10 15 12 20 22 23 23 24 25 23
21 21 21 21 22 22 21 22 22 22 22 22 22 22 23 22 23 22 22 22 21 22 23 23 23 24 23 23 23 17 13 14 20 14 9 13 18 20 25 29 23 19 12 9 6 9 4 2 3 5 8 9 8 8 17 17 25 14 16 26 16 9 13 10 9 12 12 8 9 9 3 6 7 7 7 8 12 6 10 13 18 24 25 25 25 26 24 25
22 21 22 22 22 22 22 22 22 22 23 22 23 23 23 23 22 23 22 22 21 21 22 23 23 22 23 21 21 11 15 15 19 9 9 19 26 24 28 31 18 12 12 6 5 6 4 3 4 4 8 19 7 5 13 11 15 11 28 8 3 7 10 8 13 10 9 5 6 5 6 10 6 6 7 5 9 14 8 9 18 29 30 33 30 26 25 27
22 22 22 22 22 22 22 22 23 23 22 22 23 23 23 23 23 22 23 22 22 22 21 21 22 22 21 21 15 8 6 21 5 12 14 23 28 24 28 29 17 8 9 7 10 5 8 3 5 10 12 9 13 22 8 16 10 28 15 12 6 7 14 7 8 12 8 13 9 10 7 4 3 7 5 4 5 8 6 12 27 29 31 29 30 31 27 25
22 22 22 22 23 22 22 22 22 23 23 23 23 23 23 23 23 23 22 24 23 22 22 20 21 22 21 16 11 8 12 38 22 16 26 25 28 21 27 22 18 8 4 8 7 10 7 6 9 6 10 9 9 22 8 10 10 16 23 3 14 6 10 6 10 9 9 12 18 9 1 4 4 8 4 5 8 8 11 22 30 30 29 30 30 25 29 27
23 22 22 22 22 22 23 23 23 23 23 23 23 23 23 22 23 23 22 23 23 23 22 20 19 20 18 12 17 13 17 36 33 23 23 28 17 18 20 10 17 10 3 8 8 8 6 9 13 8 10 19 9 17 9 10 12 23 23 6 5 9 12 11 5 7 11 13 8 3 8 10 7 7 4 4 6 5 14 23 27 29 28 25 27 26 24 24
23 23 23 23 23 23 23 23 23 23 23 23 22 22 23 22 22 22 22 22 22 22 22 20 18 18 15 7 15 21 34 38 21 24 25 13 12 14 13 14 11 12 9 6 4 6 8 10 9 11 10 10 12 6 9 13 26 18 13 8 7 9 5 12 12 12 7 6 4 6 10 8 13 7 6 5 4 7 17 23 25 25 25 25 24 25 25 25
23 23 23 23 23 24 24 23 24 24 23 24 23 22 22 23 23 22 22 22 21 22 21 21 18 16 12 12 14 23 19 8 15 14 10 11 15 16 12 5 10 11 10 10 11 7 11 11 14 9 3 8 5 12 1 17 15 8 13 14 13 13 8 5 10 12 12 10 6 11 6 9 9 11 14 3 8 12 18 22 22 26 26 23 22 20 20 27
24 23 24 24 24 24 24 24 24 25 24 24 23 22 23 22 23 23 23 23 22 22 22 21 19 13 8 9 16 32 12 11 11 18 16 16 19 17 15 14 7 12 7 10 9 10 12 11 7 4 7 21 5 9 12 11 4 11 9 13 17 14 13 8 5 8 4 15 11 11 11 8 8 7 13 16 12 16 24 21 21 21 24 26 20 19 16 17
25 25 25 25 25 25 25 26 26 26 26 25 24 23 22 23 23 23 24 22 23 22 21 19 18 9 8 16 27 41 12 11 22 18 22 19 21 20 14 12 10 10 9 11 13 9 10 11 7 12 19 9 17 3 15 13 6 5 7 9 7 15 32 20 19 9 7 15 8 13 8 11 10 9 11 23 19 17 22 22 21 20 22 24 21 20 19 20
24 25 25 25 26 26 26 26 27 27 26 25 24 23 23 24 25 24 24 23 20 21 20 19 15 4 8 25 36 31 25 29 27 23 23 19 21 20 15 13 12 12 13 13 11 10 8 12 9 11 16 5 6 25 8 4 8 4 6 10 7 10 22 23 13 11 8 12 10 12 18 12 16 7 21 22 22 19 19 21 21 21 21 20 21 19 18 16
25 25 26 26 26 27 27 27 27 27 26 25 24 24 24 24 25 26 25 24 23 21 20 19 11 5 12 30 25 14 12 16 15 20 27 22 16 28 15 11 12 12 11 15 19 16 13 9 13 15 11 9 12 9 13 7 4 20 8 9 17 9 21 10 24 11 13 11 11 13 20 14 10 12 19 20 24 27 26 22 22 20 19 17 18 18 19 18
26 27 26 26 26 27 27 28 27 27 26 26 25 25 25 25 26 27 26 23 21 19 18 13 2 7 18 34 11 17 24 20 18 25 21 14 12 19 13 8 12 14 15 15 14 10 13 12 12 18 19 8 13 9 13 6 6 12 20 27 12 19 9 7 12 19 27 12 10 12 17 17 10 15 18 21 21 25 28 23 22 20 19 17 16 16 17 16
27 27 27 26 27 28 28 28 27 27 26 26 26 26 25 27 28 28 27 24 24 20 11 6 6 9 16 36 19 9 9 5 13 18 19 13 14 18 16 9 4 8 7 9 16 17 13 8 16 15 10 6 13 12 4 9 10 12 26 6 23 11 11 7 9 12 20 17 4 20 15 7 9 11 16 14 19 21 27 21 19 20 20 19 16 18 15 16
27 27 28 27 27 28 28 27 27 26 25 26 27 24 23 26 31 28 27 26 16 5 8 10 4 10 16 15 12 13 12 11 9 6 4 13 14 17 10 4 8 7 7 9 10 8 9 12 9 12 15 15 10 13 11 16 10 20 9 14 9 18 8 19 7 7 16 21 14 10 18 9 6 21 18 14 15 17 22 22 20 19 20 20 19 19 17 17
27 28 28 28 28 27 28 27 27 26 25 26 24 21 30 28 31 25 14 8 7 7 6 6 4 9 34 24 28 15 3 9 9 14 15 13 16 14 11 12 5 6 5 8 5 12 11 15 14 12 11 19 16 21 34 39 34 15 9 12 7 7 17 13 18 8 15 19 17 8 11 15 2 14 22 22 18 18 27 23 21 20 19 19 19 19 16 16
28 28 28 28 28 28 28 27 27 27 25 25 20 21 25 23 10 3 7 6 11 7 8 18 19 21 20 5 12 8 13 12 17 13 14 7 9 14 7 7 3 4 9 12 12 15 10 8 8 10 28 28 30 24 19 4 15 10 11 13 9 16 13 26 14 6 19 12 17 13 17 13 6 13 18 16 18 17 21 16 15 16 17 17 18 16 17 17
29 29 29 28 29 28 30 29 27 27 25 18 15 18 14 16 17 10 5 4 8 9 9 5 21 19 22 28 18 9 12 13 15 8 11 8 7 5 8 9 6 7 11 20 9 16 12 19 26 32 24 18 10 13 11 9 5 15 8 11 11 12 8 8 11 10 11 13 15 13 11 14 12 17 21 22 16 10 13 17 16 17 18 18 18 18 18 17
29 30 29 29 30 30 29 29 26 23 23 13 8 10 14 12 15 22 14 18 17 17 20 21 21 26 33 23 22 16 23 14 8 17 15 10 7 7 9 12 9 13 13 7 14 8 16 19 24 11 6 12 13 9 11 14 6 9 12 12 12 11 11 12 14 9 9 14 6 11 14 12 14 15 17 16 15 17 21 20 19 19 19 17 18 18 18 15
29 29 31 31 31 31 31 28 26 23 20 4 4 8 9 7 6 8 11 27 14 19 19 25 18 24 26 26 27 10 11 22 26 21 21 15 10 17 8 16 13 19 8 9 5 12 25 32 14 6 5 11 12 13 12 16 13 5 10 13 12 13 7 7 7 7 8 11 8 9 17 12 7 8 7 16 20 21 18 21 25 25 23 19 17 17 16 15
29 30 30 31 32 31 31 28 25 19 7 5 5 6 10 6 4 8 11 21 37 16 23 20 19 25 30 29 22 9 10 19 22 16 7 9 9 17 13 16 15 11 14 13 23 13 20 16 11 10 6 12 10 15 15 16 12 8 5 9 17 10 18 14 8 4 8 17 10 10 15 5 6 6 6 7 13 7 9 11 9 15 21 24 23 21 24 20
29 30 31 31 32 32 31 28 19 7 4 4 9 10 9 3 6 5 6 15 27 19 18 20 20 19 23 25 17 22 19 16 15 22 14 13 13 9 14 15 11 16 20 18 15 14 11 4 12 12 9 11 14 15 18 18 17 5 6 7 8 6 14 11 12 8 6 4 8 13 11 7 5 10 11 5 3 12 10 9 9 10 11 7 5 9 13 20
31 31 32 32 33 33 31 28 8 3 4 8 6 5 3 4 6 8 6 18 17 23 7 12 13 12 23 6 7 16 14 15 20 17 6 16 15 15 12 15 16 21 16 11 6 9 11 12 15 16 15 10 14 18 23 20 13 12 6 9 8 6 12 6 4 10 10 7 7 18 14 18 7 11 16 12 9 11 10 14 16 15 13 14 17 18 16 14
32 31 32 32 32 32 29 18 7 4 9 13 8 3 6 3 8 7 6 14 22 12 4 7 10 11 12 6 13 13 10 20 18 25 15 9 9 12 17 17 23 22 16 14 14 19 13 7 14 21 18 15 11 15 12 17 16 13 17 11 8 6 4 3 4 8 11 18 11 7 20 20 6 16 15 14 14 15 10 17 20 18 18 18 18 18 21 20
33 32 32 32 30 28 21 12 3 5 12 10 4 4 5 3 7 7 12 14 14 11 9 5 8 18 13 9 18 12 9 22 13 15 19 19 10 7 11 13 13 9 15 15 17 27 18 18 13 16 19 20 17 18 17 22 18 20 6 15 10 7 7 6 7 7 7 6 8 4 14 17 12 16 16 15 16 14 13 17 20 23 21 19 16 17 18 21
34 33 32 33 31 23 19 21 15 10 12 8 3 3 4 3 6 4 9 18 20 7 6 8 12 11 8 6 17 22 12 6 9 19 22 14 9 5 10 9 14 12 16 21 27 8 20 20 16 20 19 21 24 13 7 16 23 15 6 13 13 12 10 5 6 4 5 4 13 9 6 18 17 13 7 16 17 18 19 19 22 23 23 23 18 18 20 21
35 34 34 32 31 28 17 11 6 14 8 5 1 3 4 6 5 6 8 13 14 15 15 9 10 12 8 7 20 16 18 7 7 5 16 13 15 9 13 10 10 9 12 17 15 6 21 18 15 16 19 24 11 10 14 18 19 8 10 7 7 6 7 7 5 4 5 7 16 13 11 21 14 10 9 13 18 22 23 23 22 24 25 25 22 19 19 18
36 35 36 34 27 12 4 4 14 14 6 3 4 4 4 5 5 9 10 15 10 17 8 12 10 8 5 8 16 12 14 9 9 8 18 19 16 4 9 5 10 14 15 14 12 12 8 14 13 20 24 14 13 9 14 15 8 7 12 8 5 5 5 5 7 10 6 18 19 7 10 13 18 15 19 23 27 27 23 19 19 20 20 22 21 22 23 22
38 38 37 32 19 12 7 10 16 15 10 6 3 3 3 4 7 10 11 15 10 11 7 8 8 8 6 7 8 12 12 12 12 11 15 13 9 11 7 8 7 11 8 12 18 22 12 12 20 19 13 14 15 14 10 17 12 15 17 12 11 8 6 6 5 5 19 22 9 9 14 12 20 15 11 22 23 30 28 27 28 27 27 27 24 24 24 21
40 41 40 30 18 10 14 10 8 5 8 5 6 5 5 10 5 12 19 7 20 7 8 5 4 9 8 5 5 8 15 10 11 12 15 23 14 21 16 13 18 22 17 18 23 16 15 12 10 10 16 18 23 18 10 14 14 18 12 11 21 15 17 18 11 22 20 20 7 9 11 7 25 16 15 25 24 21 23 28 31 31 28 25 23 23 22 21
40 40 38 22 9 11 18 12 4 4 7 7 3 3 6 8 19 12 17 6 17 5 10 7 8 11 7 6 7 5 8 8 9 17 14 18 19 17 13 16 8 14 22 19 16 18 12 6 10 12 15 23 21 30 24 20 21 23 26 25 23 22 23 22 12 13 8 11 7 10 13 21 8 16 16 26 33 27 29 29 24 25 27 25 21 21 20 20
39 36 24 12 8 14 10 8 9 5 3 4 5 6 6 9 19 9 11 11 14 7 9 9 10 9 9 11 6 11 10 11 8 12 11 13 18 19 12 10 8 5 12 14 24 20 14 15 19 20 25 22 30 25 21 15 19 22 10 20 17 14 26 21 20 25 16 15 8 3 14 20 11 15 10 28 27 22 13 5 9 12 13 16 18 20 20 19
37 23 11 13 7 13 15 9 9 8 7 4 5 9 12 17 13 13 14 10 10 7 9 9 10 4 7 7 4 9 8 13 13 10 14 11 20 17 19 17 15 7 5 30 15 19 13 15 11 13 5 24 23 17 12 13 13 12 13 13 13 27 12 13 16 15 12 11 9 10 19 12 17 6 10 8 11 12 11 12 15 16 16 19 21 23 22 21
24 18 8 8 5 5 14 12 9 9 9 6 10 13 14 12 15 6 14 5 10 10 14 13 6 4 4 2 5 6 9 10 13 12 11 11 13 20 13 11 17 12 11 24 15 19 11 16 6 22 7 27 18 19 18 17 33 21 21 32 19 9 12 11 5 3 6 8 20 11 10 8 15 9 13 11 18 13 15 16 18 19 21 22 22 22 21 22
19 21 12 10 7 4 11 12 12 11 8 7 10 13 10 14 13 11 12 11 11 6 8 10 8 5 7 8 7 10 9 9 15 15 13 10 14 13 12 6 9 9 12 12 14 8 23 13 7 26 16 15 21 20 12 13 13 20 28 15 6 6 10 11 12 7 11 18 20 7 13 6 10 18 9 7 14 14 18 20 20 21 22 25 24 25 24 24
21 15 10 8 9 5 11 13 13 8 6 7 13 16 7 14 9 10 9 15 9 3 7 4 6 5 6 8 10 9 7 8 15 14 7 11 16 10 10 14 9 14 14 7 11 11 9 13 10 16 16 12 14 22 14 9 9 22 16 9 29 20 20 10 12 8 11 18 14 6 3 9 17 15 7 10 18 15 17 18 22 25 27 25 22 22 18 19
9 6 10 9 9 10 10 14 10 9 6 11 12 17 8 12 16 14 13 14 7 5 5 5 7 8 7 7 7 7 12 10 15 11 12 15 10 15 16 12 13 13 8 11 9 8 5 12 11 7 22 13 14 24 29 25 11 3 14 20 9 13 9 13 25 10 17 10 9 10 4 17 18 18 20 24 25 24 23 23 26 30 29 25 24 25 24 24
13 9 7 8 5 8 11 9 7 5 9 12 12 16 8 18 18 15 14 13 6 6 6 6 8 5 8 3 4 11 7 9 7 10 5 12 13 6 16 14 11 15 10 13 9 3 6 4 16 15 13 18 23 30 30 26 27 20 21 21 18 15 7 14 8 10 8 14 13 12 10 15 16 17 23 26 28 28 30 31 26 26 25 24 24 26 26 24
10 5 8 5 5 6 7 5 7 8 11 14 10 14 17 14 18 13 14 8 9 6 7 5 6 6 3 6 5 6 10 6 8 9 8 9 15 12 13 21 13 7 13 8 8 8 8 4 8 9 18 24 22 16 11 19 19 17 15 15 15 14 13 22 20 9 9 8 14 15 14 16 19 7 23 24 22 27 30 30 27 24 25 25 25 24 24 24
11 9 7 3 5 5 6 11 9 7 14 14 21 24 25 22 12 14 15 4 7 8 5 6 6 4 5 7 8 12 11 7 7 5 8 12 12 9 12 15 13 6 23 21 16 8 12 7 11 15 22 19 6 12 11 16 15 14 18 13 16 17 13 17 17 12 6 7 10 10 14 15 11 6 11 14 18 22 22 23 23 25 27 26 26 25 23 22
12 9 11 9 7 7 6 10 7 14 10 18 19 17 16 14 8 12 11 9 11 5 6 6 6 6 9 13 12 11 7 9 6 6 7 9 15 22 12 18 14 10 11 14 7 13 9 12 7 4 5 4 3 5 14 17 17 10 16 7 15 23 15 17 19 15 17 5 6 6 12 15 9 6 5 8 8 9 10 10 15 17 18 22 23 24 24 21
10 10 13 9 4 6 6 14 18 18 21 21 15 18 13 11 9 16 14 13 13 13 10 10 7 10 6 6 8 6 6 10 8 15 15 5 7 12 11 16 19 15 14 13 17 10 18 10 9 12 18 14 8 11 13 8 20 21 21 13 17 15 13 7 10 4 13 11 12 16 14 13 8 10 5 11 11 13 14 13 17 20 18 20 22 22 22 20
13 8 9 14 11 9 9 6 8 16 20 21 25 22 25 14 9 12 12 13 8 8 11 9 11 4 8 4 5 5 6 7 8 9 6 6 9 4 13 14 22 16 15 6 6 10 7 7 11 13 23 23 27 32 33 28 29 19 11 14 12 17 17 11 13 8 12 4 6 11 12 18 13 5 7 10 12 11 10 14 14 19 21 23 22 22 22 21
13 17 14 13 15 12 7 4 4 13 19 20 20 14 14 24 23 12 5 12 3 9 7 8 9 10 9 7 6 9 11 3 7 7 10 10 11 8 8 14 16 23 16 14 14 6 7 4 7 12 17 20 19 12 6 12 12 22 11 18 14 10 17 14 12 11 15 8 9 13 12 9 6 4 8 10 15 18 19 19 23 22 21 22 21 21 22 20
8 14 16 19 16 5 10 7 11 15 17 19 16 20 19 21 20 16 7 12 9 16 11 5 14 14 14 10 9 7 7 3 7 6 9 8 6 6 8 9 11 13 15 15 13 9 7 9 9 10 13 16 13 10 15 15 13 10 14 15 11 13 11 13 16 17 10 18 9 12 7 14 14 8 9 11 11 12 13 17 20 20 22 24 23 21 19 20
17 7 6 6 11 16 21 16 19 17 20 16 12 14 16 21 22 24 19 4 11 9 14 8 10 16 16 15 9 10 8 8 7 6 9 5 10 10 14 8 9 10 12 14 5 11 8 10 5 8 13 5 5 20 18 18 12 14 17 15 12 10 14 18 15 9 10 12 16 10 10 11 13 19 22 23 23 28 28 28 25 24 24 21 22 24 24 23
8 8 8 9 12 10 10 18 21 18 19 15 15 11 22 19 21 16 12 16 12 10 10 10 13 17 16 15 8 6 8 8 7 5 6 11 7 11 17 9 9 7 8 10 9 8 8 10 7 6 9 5 3 15 18 21 12 13 15 18 15 15 18 19 13 7 13 5 9 15 14 17 12 9 6 4 4 10 13 12 18 21 23 25 24 24 26 25
15 12 11 9 11 16 15 12 14 14 14 18 18 15 22 20 20 24 17 9 15 10 5 8 15 17 15 12 8 8 7 4 3 5 4 6 11 9 11 5 9 10 6 11 9 3 7 14 7 6 11 6 7 7 13 19 14 11 4 5 10 13 8 4 8 5 8 10 5 6 7 13 11 7 6 3 10 13 15 17 20 20 21 22 23 24 25 26
10 7 11 17 21 12 13 9 13 15 13 12 16 17 20 16 19 21 19 12 8 11 12 15 15 17 12 12 8 5 8 6 7 12 10 8 8 5 10 7 6 8 11 8 6 9 7 7 5 8 15 6 7 7 8 15 15 12 6 5 10 12 12 8 15 13 10 11 7 9 5 13 9 5 9 11 12 16 19 20 21 21 21 21 22 21 22 22
10 9 10 10 12 11 15 14 13 12 11 15 16 21 20 20 20 19 22 7 8 11 12 13 17 12 11 10 8 10 9 11 17 16 15 12 13 12 9 13 7 5 8 7 3 6 5 8 9 9 15 5 7 4 15 15 16 10 5 9 12 5 4 5 3 5 7 16 15 12 17 9 10 10 11 7 13 11 12 18 19 18 21 21 22 22 23 24
Wind_Speed
15 16 16 16 16 16 16 16 16 17 16 17 17 16 16 17 17 15 16 16 16 17 18 19 18 19 18 19 20 18 15 6 8 7 6 15 9 14 17 18 20 18 10 1 1 0 3 3 3 0 3 2 1 1 3 0 1 2 4 7 12 5 9 6 8 8 4 7 4 4 8 8 5 2 1 1 5 4 5 9 4 12 10 10 14 16 16 14
16 16 16 16 16 16 16 16 16 16 16 17 17 17 17 17 18 16 15 15 16 18 18 18 18 18 19 19 19 18 12 6 11 10 16 14 13 19 17 15 17 18 10 4 4 1 1 1 0 3 5 3 0 2 3 2 3 6 2 5 17 7 4 10 6 7 7 4 3 7 4 8 8 3 2 1 0 1 6 5 9 13 12 13 15 17 18 17
16 16 16 16 16 16 16 16 16 16 16 16 17 17 17 18 17 17 17 16 16 16 17 18 18 18 19 18 17 18 10 10 9 13 16 6 15 9 10 16 14 8 11 6 4 5 4 2 0 2 3 4 2 4 3 3 5 5 5 10 12 2 3 7 7 8 5 6 7 6 2 6 2 4 0 1 1 1 6 7 7 12 13 14 14 15 15 15
16 16 16 16 16 16 16 16 16 16 16 16 16 16 17 17 18 18 17 17 16 16 16 16 18 18 18 18 18 10 8 8 8 5 5 9 10 10 15 18 14 3 7 5 3 4 2 0 2 3 2 3 2 2 5 6 5 2 3 7 3 4 4 4 3 6 8 6 4 4 1 2 2 4 1 2 1 2 3 6 12 14 16 17 17 17 15 15
16 16 16 16 16 16 16 17 17 17 17 16 17 16 16 17 17 18 18 18 17 16 16 15 16 17 17 17 16 6 8 7 5 3 5 14 15 15 17 19 12 3 6 3 1 0 1 2 2 1 2 5 3 2 4 4 3 2 10 2 0 1 3 3 7 6 5 2 2 1 4 4 1 0 1 2 3 4 3 6 10 19 19 21 20 17 14 14
16 16 16 16 16 16 16 17 17 17 17 17 17 17 17 17 17 17 17 17 18 17 16 16 15 15 16 14 8 4 1 5 1 4 6 15 16 16 16 16 13 5 4 4 5 3 3 1 2 3 2 3 8 10 2 7 4 9 1 5 2 2 4 2 2 4 3 2 4 2 4 0 0 1 0 3 3 3 3 5 16 18 20 19 18 18 15 15
16 16 16 16 16 16 17 17 17 17 17 17 18 17 17 17 16 17 16 17 17 18 17 16 15 15 14 11 4 1 5 11 7 8 7 18 15 16 16 11 13 5 1 0 2 3 4 4 4 3 3 1 4 6 2 5 4 5 6 1 6 3 5 2 2 5 4 5 5 3 1 1 2 4 0 1 3 6 4 8 12 12 14 16 17 17 20 18
17 17 17 17 17 17 17 17 18 17 17 17 17 17 17 17 17 17 16 16 16 16 17 16 14 13 12 3 7 3 7 12 9 9 15 14 12 12 12 3 9 7 2 1 1 1 4 5 8 3 2 9 2 8 4 2 5 11 8 2 2 4 4 5 2 2 3 5 4 2 2 5 3 1 1 1 4 1 7 11 12 13 13 12 13 15 14 13
17 18 17 17 17 17 18 18 17 18 17 17 17 16 17 16 17 17 17 16 16 15 16 16 15 13 7 1 2 8 12 11 14 14 8 8 9 9 7 5 7 7 3 3 1 3 3 4 4 5 4 4 3 5 5 6 9 6 6 2 2 2 3 7 6 6 2 2 2 1 6 4 4 3 2 3 2 3 10 13 14 14 14 14 14 14 15 14
18 18 19 19 19 18 18 18 18 18 18 18 17 17 16 16 16 17 17 17 16 17 16 16 14 12 4 1 2 5 6 3 4 8 7 7 9 10 5 3 7 6 6 7 7 1 2 2 6 3 2 2 2 4 1 11 4 4 7 7 4 6 4 1 6 6 6 4 3 4 2 4 3 6 5 2 3 8 11 14 14 16 15 14 12 10 10 13
19 19 19 19 19 19 19 19 19 19 19 19 19 17 17 16 16 16 16 17 16 16 16 16 15 10 1 2 3 13 2 6 5 10 11 11 10 7 8 6 4 4 2 4 4 2 4 4 2 1 1 4 1 5 5 3 2 1 6 5 11 8 8 3 0 4 0 4 6 4 5 3 3 2 6 8 7 11 14 14 14 12 14 13 12 11 10 9
19 20 19 19 19 20 19 20 19 20 20 19 19 17 17 16 16 16 17 16 16 16 15 14 15 4 3 8 13 15 8 6 10 9 11 13 10 7 8 7 3 4 2 5 7 6 4 4 3 2 4 3 4 0 5 9 1 1 4 2 3 7 11 12 10 5 3 4 5 7 3 5 2 4 5 11 11 12 14 15 15 13 11 12 12 10 10 11
19 19 19 19 19 20 20 20 19 20 20 19 19 18 18 17 17 18 17 17 14 15 15 14 11 1 3 13 14 13 15 17 17 15 12 8 9 6 5 7 7 6 7 6 5 2 1 2 2 4 5 1 2 6 3 1 4 3 1 3 1 3 8 13 7 7 5 3 6 6 5 6 5 4 3 14 14 13 12 12 13 11 10 10 10 10 9 9
19 18 20 20 19 20 20 20 20 21 21 19 18 19 18 18 19 20 19 19 18 16 14 12 5 2 5 12 3 1 6 9 9 13 16 9 6 9 7 7 8 7 6 8 9 6 6 3 3 5 4 3 3 4 2 3 1 9 2 3 5 4 6 5 9 8 7 4 7 5 7 7 5 8 9 13 16 15 15 13 13 12 11 10 10 9 10 10
19 19 19 20 20 20 20 21 21 21 20 20 19 19 19 19 19 20 20 18 16 14 12 9 0 2 7 11 4 9 16 9 6 13 12 4 4 7 6 5 6 7 7 8 3 3 5 2 1 2 3 2 7 4 4 0 1 4 6 11 3 9 3 3 8 13 14 2 7 5 6 8 6 7 12 14 14 17 19 15 12 10 9 9 7 9 8 9
19 19 20 20 19 20 20 20 20 20 19 19 19 19 20 19 19 20 20 19 19 15 6 3 2 3 7 13 4 4 2 2 6 9 7 7 4 6 5 1 1 2 3 4 7 4 2 3 2 3 1 1 5 3 1 1 2 3 12 2 11 6 5 1 5 8 14 6 2 12 4 2 5 4 10 9 12 14 19 15 12 13 10 9 7 8 8 9
20 20 21 21 20 19 21 20 20 20 20 19 20 17 17 19 20 19 18 15 8 2 4 2 2 4 6 3 4 4 4 5 5 2 1 5 7 7 0 1 3 3 4 3 3 3 3 3 2 2 3 2 3 5 3 7 3 7 1 4 3 10 4 6 2 2 11 14 6 5 7 4 2 5 12 9 10 12 13 15 14 13 13 12 11 11 10 10
20 22 21 21 21 21 21 21 21 20 20 20 18 15 15 19 17 9 4 5 3 2 2 1 2 3 11 9 12 7 0 3 4 6 10 7 10 7 5 3 2 3 1 2 2 3 3 3 3 4 4 6 7 9 13 15 11 5 4 4 2 3 10 7 5 3 9 12 11 5 7 10 1 5 11 13 12 12 17 14 14 14 13 12 12 11 10 9
21 21 21 21 21 22 22 22 21 21 20 18 14 14 17 9 2 1 3 3 3 3 1 4 6 7 6 2 7 5 4 4 8 6 6 1 3 4 2 2 1 1 3 5 3 9 2 1 4 3 10 12 13 13 8 2 10 7 8 6 5 8 6 12 6 2 13 7 10 9 8 8 2 8 8 8 11 12 15 11 9 9 10 11 11 7 9 8
21 21 21 22 22 21 23 23 21 21 20 11 7 5 4 5 4 1 1 2 2 5 6 3 10 9 14 15 5 3 3 6 5 3 4 4 2 3 3 3 2 2 4 8 3 8 4 7 10 13 8 8 5 7 7 1 2 10 5 6 6 7 4 3 6 4 7 5 9 7 6 8 6 10 13 12 10 6 7 9 9 10 10 11 11 11 9 9
21 21 22 23 23 23 23 24 21 19 19 5 4 3 3 2 6 5 4 10 11 11 13 13 13 16 16 11 12 8 9 5 4 4 6 4 4 0 2 5 2 4 5 4 6 1 7 8 11 5 4 8 8 5 7 1 2 6 8 7 5 7 6 6 7 4 5 5 3 7 9 7 8 10 11 10 8 10 12 12 12 13 13 10 12 13 12 9
22 22 22 23 24 24 24 23 22 19 10 1 1 1 1 2 3 1 1 8 8 13 13 16 12 14 13 15 16 3 4 7 9 12 11 8 4 6 2 6 4 9 5 3 2 4 10 14 6 4 3 7 8 7 8 8 2 1 5 8 5 5 3 3 3 5 4 6 5 6 10 8 4 4 4 10 12 11 10 13 14 15 16 12 11 11 10 9
22 22 23 24 24 24 24 22 20 14 2 1 1 1 2 3 2 2 1 7 17 8 14 13 12 15 16 10 4 6 6 10 9 6 1 6 5 9 6 6 6 5 7 8 12 7 9 7 7 7 4 8 6 8 9 8 1 1 2 5 9 5 6 5 4 2 5 5 4 6 9 1 3 1 3 4 7 2 3 8 5 8 11 14 14 13 11 13
23 23 24 25 25 23 25 23 16 3 0 1 4 4 3 1 3 2 1 5 10 8 8 10 12 9 11 9 5 12 12 4 6 12 5 4 6 5 4 7 6 6 10 11 10 7 4 2 8 8 5 8 9 10 12 10 6 2 2 1 3 3 6 5 5 2 4 3 4 7 5 1 2 4 4 2 1 3 5 4 4 6 7 4 3 6 7 10
23 24 24 24 24 24 23 23 4 0 1 4 3 3 2 3 3 5 0 5 5 7 3 2 5 4 8 2 4 6 6 4 11 3 1 8 7 4 3 3 4 8 8 7 4 2 6 6 8 10 7 5 9 11 14 11 6 3 4 6 4 4 8 3 2 6 3 1 2 11 2 5 3 7 10 6 3 7 5 9 9 8 7 8 10 11 10 9
25 24 24 23 22 22 23 9 2 1 4 5 3 1 1 1 3 2 1 2 8 2 0 2 4 2 3 2 4 5 5 5 9 11 5 5 4 4 3 3 4 9 7 9 6 3 4 2 5 13 10 6 7 8 7 11 8 5 6 5 5 3 1 2 2 4 5 6 5 3 9 3 1 9 8 7 9 11 4 10 10 9 8 9 9 10 10 11
24 25 24 23 21 20 9 3 1 0 6 4 1 1 0 1 2 2 2 2 5 0 3 0 2 1 3 4 8 5 2 5 1 7 9 8 3 2 5 6 3 1 4 3 2 6 5 9 3 5 12 10 7 9 8 14 9 5 3 8 4 1 2 1 5 4 1 2 3 1 4 5 1 7 9 9 11 9 6 8 10 11 12 11 9 10 10 10
24 25 24 24 22 15 7 8 8 5 6 3 2 2 1 1 2 1 1 3 3 2 1 3 3 1 2 2 8 7 3 2 1 2 12 7 4 0 3 6 6 7 8 7 12 1 13 8 5 6 9 9 9 4 5 10 8 3 3 8 6 6 4 2 4 2 1 2 5 4 0 3 3 4 1 10 10 10 12 11 12 13 15 15 11 11 11 11
25 25 26 24 24 22 9 5 3 7 4 2 0 2 1 3 1 1 2 4 2 1 3 2 2 1 1 5 6 9 5 2 1 0 8 5 8 2 3 3 5 6 6 8 7 1 3 11 8 6 6 9 5 5 9 11 8 4 5 4 2 2 2 3 1 1 1 2 8 8 4 4 3 4 2 7 11 12 13 14 14 15 16 15 13 12 11 11
27 25 25 25 18 5 1 1 7 9 2 1 1 1 3 2 0 1 1 5 2 2 2 2 1 2 2 3 3 4 6 2 3 2 8 5 10 0 2 3 4 4 5 4 4 5 2 5 9 6 7 4 7 4 8 9 5 4 7 5 2 2 2 1 2 2 2 4 5 4 5 5 4 5 9 10 9 11 12 10 11 11 13 14 13 12 11 11
29 29 26 24 9 4 3 4 9 8 5 1 1 2 2 1 2 2 4 3 2 2 2 2 2 3 2 4 3 3 4 3 5 2 5 3 2 4 1 3 1 4 2 4 6 9 5 1 5 3 6 4 9 4 5 10 7 10 3 5 6 1 3 2 1 3 3 6 3 5 8 4 7 2 4 9 11 17 16 16 17 16 18 15 12 12 11 11
28 31 29 17 9 4 6 4 5 1 4 3 3 3 1 1 1 4 5 1 4 1 2 1 0 2 4 3 1 2 4 4 6 1 5 8 6 8 7 4 5 7 5 8 6 5 8 4 1 6 8 10 10 10 5 8 9 9 6 6 10 3 2 2 1 6 6 5 1 4 6 2 6 4 9 15 11 12 14 15 17 17 14 13 13 13 11 11
30 31 28 11 5 5 8 5 2 2 5 4 2 2 1 1 5 5 5 1 3 1 1 1 3 5 3 3 2 2 4 2 4 4 1 4 9 8 9 7 4 4 7 7 7 7 5 2 4 5 9 10 11 13 9 8 11 13 11 8 9 6 6 7 2 1 1 4 2 4 3 3 2 7 8 11 15 16 16 17 9 7 12 14 13 11 11 11
28 27 11 4 4 6 3 5 4 3 2 2 3 1 2 2 6 5 5 4 6 1 3 2 5 5 4 4 2 5 4 2 3 4 4 4 9 8 6 4 2 1 6 6 6 8 6 5 7 10 7 10 12 10 10 4 10 10 3 7 6 3 4 4 3 7 5 7 1 2 3 5 6 6 3 12 12 10 8 3 5 8 8 8 10 11 12 13
28 15 6 4 2 5 8 5 5 5 2 2 1 2 3 5 4 4 5 3 1 1 3 3 4 1 4 3 0 5 2 2 4 0 5 4 8 7 7 7 9 2 2 11 3 3 5 2 5 7 2 11 11 4 5 7 7 2 4 7 5 8 5 4 5 5 2 3 2 1 4 5 6 1 2 3 4 4 7 7 8 9 10 11 11 12 12 12
16 8 2 2 2 2 7 5 6 5 5 3 2 3 5 3 4 0 3 0 2 2 6 6 2 1 1 0 2 2 2 3 5 2 3 5 7 8 8 3 5 6 4 7 4 6 3 3 3 12 3 17 10 7 4 8 9 6 8 12 8 4 6 5 2 0 2 2 4 1 2 2 7 3 2 3 3 4 6 9 10 10 12 13 12 12 12 12
8 9 4 5 3 1 5 6 6 6 4 2 3 4 3 3 7 4 3 5 2 2 3 2 1 1 1 2 2 5 3 5 6 5 4 4 5 6 5 3 5 5 8 5 4 2 10 4 2 13 5 8 13 11 5 5 6 5 7 7 2 2 5 2 2 2 2 5 4 2 7 1 2 5 3 4 4 4 8 10 11 12 13 15 13 13 13 13
9 6 5 3 5 2 4 7 7 3 2 1 5 11 1 5 2 3 4 6 1 1 2 1 1 2 2 3 5 5 2 1 7 5 1 5 1 5 3 3 5 7 9 3 2 3 4 2 2 10 10 6 5 12 5 4 4 11 7 3 9 6 8 2 3 1 2 5 2 0 1 2 7 6 1 3 9 9 8 8 11 14 15 15 14 13 11 11
4 1 3 4 5 3 4 7 5 3 1 3 4 6 1 4 8 7 6 7 3 2 1 1 0 2 2 1 1 3 7 2 7 4 4 4 2 7 6 3 5 6 5 7 1 1 1 2 1 3 8 5 6 10 12 11 2 1 8 7 2 6 2 4 5 3 6 3 3 2 1 5 6 6 9 10 13 14 12 12 14 17 17 14 14 15 15 14
4 2 2 2 2 2 5 4 3 1 1 3 5 5 2 6 8 9 6 6 1 1 1 2 3 2 2 1 1 5 2 2 3 4 1 2 1 3 7 7 2 5 6 8 2 1 1 1 4 5 5 9 7 8 14 12 11 5 9 7 2 0 2 4 1 2 2 4 4 4 1 5 7 8 8 12 14 15 17 18 15 13 14 14 16 16 15 15
3 0 1 1 1 2 2 1 1 2 3 4 6 6 9 3 7 6 9 3 3 2 3 2 2 1 0 2 2 2 3 2 2 2 2 1 3 2 5 10 5 3 5 3 3 2 0 0 3 1 5 9 10 6 5 8 8 4 5 5 4 8 6 10 8 2 2 1 1 4 5 5 9 1 8 7 10 13 18 20 15 13 14 15 14 15 14 14
3 2 1 2 1 2 1 5 2 2 3 5 7 6 7 12 4 8 8 0 5 2 1 2 3 2 1 1 2 0 1 2 3 2 2 5 4 4 5 11 7 3 7 4 3 4 4 2 5 6 8 8 3 5 5 9 6 5 7 5 6 4 6 5 4 4 2 0 4 3 1 7 3 3 2 3 7 8 3 1 1 7 13 13 14 14 12 13
3 3 5 5 4 2 3 3 2 4 3 6 10 9 9 6 4 5 5 4 4 1 1 1 2 1 2 1 2 2 3 0 1 2 2 3 7 12 6 13 9 5 5 1 1 3 5 1 0 0 1 1 2 2 8 9 8 4 3 3 6 8 6 7 6 5 6 1 1 1 1 4 3 3 3 5 5 5 5 6 8 7 7 10 13 13 13 12
3 4 5 3 3 1 3 4 7 8 8 9 6 9 7 5 3 8 6 8 3 5 1 2 4 6 2 4 3 3 3 1 2 1 1 0 2 5 5 10 10 5 6 5 5 4 2 2 3 4 4 2 4 4 3 3 6 5 6 4 6 5 4 2 4 1 3 5 6 5 4 4 1 5 0 5 7 8 9 9 11 11 11 11 13 12 10 10
4 3 4 5 4 3 2 0 3 6 8 11 11 13 12 3 2 6 6 7 2 2 2 2 4 2 4 0 2 3 3 2 1 2 1 1 3 2 8 11 13 3 6 3 3 4 1 2 3 4 10 9 7 8 10 11 14 4 4 5 5 9 7 5 3 1 3 1 4 2 3 8 4 2 3 5 7 6 6 9 8 10 11 12 12 12 11 10
4 4 4 4 4 5 1 2 2 4 8 10 11 6 7 10 10 7 2 5 1 4 4 3 2 3 3 3 2 2 2 0 2 1 2 2 2 1 3 7 12 7 9 9 3 3 1 1 1 4 7 10 9 4 2 5 4 8 6 10 6 5 9 6 5 5 6 3 4 7 6 5 1 2 2 5 7 10 9 11 13 13 13 12 12 11 11 10
2 3 4 7 6 2 3 2 3 5 7 8 5 7 10 12 9 5 3 4 5 7 3 1 6 6 7 4 2 3 3 1 4 3 2 2 2 2 3 6 2 9 12 8 7 2 1 2 5 6 6 9 9 6 9 10 7 5 8 9 7 7 6 7 6 5 4 9 4 4 4 2 8 4 4 4 4 6 8 8 9 11 13 14 14 12 12 12
4 2 1 1 3 5 8 4 8 9 11 7 4 4 9 12 11 8 8 1 7 3 4 2 4 10 9 8 5 2 4 2 3 2 4 2 3 3 5 4 3 5 6 4 0 4 2 3 3 5 8 2 3 13 12 9 6 7 11 9 9 7 9 10 8 5 7 5 8 5 5 4 6 6 6 5 5 10 11 12 10 10 11 11 13 14 13 13
2 2 2 4 4 5 5 10 14 11 11 8 4 5 11 11 11 7 3 7 5 4 5 3 7 11 10 9 3 2 4 2 2 2 2 6 4 2 6 3 6 4 3 3 1 1 2 5 4 3 2 1 1 10 12 14 5 8 10 12 9 10 12 13 8 5 8 3 4 3 8 11 6 1 3 3 3 5 5 7 10 13 15 14 14 14 13 13
4 4 4 3 4 8 9 7 6 8 7 8 6 7 8 10 10 12 8 3 6 5 3 4 9 8 7 6 5 3 2 1 2 2 2 4 4 4 4 2 2 6 2 2 1 0 2 5 4 3 3 2 3 4 9 12 10 5 2 4 8 9 5 2 4 1 3 1 1 1 2 7 6 3 2 2 5 7 9 10 12 12 12 13 15 15 14 13
3 2 4 6 8 5 6 4 5 7 4 5 6 8 10 10 12 12 10 5 5 5 7 10 10 10 5 5 3 0 5 3 2 5 6 4 1 2 3 1 2 4 6 2 0 0 2 3 2 1 5 2 3 3 5 10 8 7 3 4 6 8 7 3 5 6 5 5 1 3 1 6 5 1 3 7 7 9 11 12 12 12 14 14 14 14 14 13
3 4 5 4 4 5 7 7 6 4 3 5 6 12 7 12 12 11 9 3 4 7 7 9 11 7 5 5 4 3 3 3 7 8 7 6 5 6 3 5 1 2 3 2 0 2 1 2 2 2 7 0 3 2 9 10 9 4 2 5 8 1 2 2 1 2 2 6 8 4 9 4 5 5 7 3 8 8 8 11 11 10 11 13 15 15 15 15
Wind_Direction
350 350 348 346 346 345 344 343 340 338 336 336 332 333 331 330 324 329 327 327 328 328 326 328 333 333 334 333 335 334 331 321 314 303 288 257 243 261 272 271 271 269 248 133 290 47 318 357 180 351 85 104 242 130 236 173 131 114 206 205 232 200 191 182 176 184 187 188 207 171 201 183 231 290 241 72 23 98 57 49 11 50 54 92 107 116 121 127
346 346 345 342 341 342 340 338 338 336 335 334 333 331 331 329 326 326 326 322 325 326 328 330 331 334 336 336 339 337 331 314 295 279 254 259 284 274 283 293 283 262 238 227 208 168 135 305 3 129 114 159 269 185 147 238 148 186 184 177 233 166 216 157 178 189 132 215 189 207 173 170 220 164 270 118 310 95 63 45 79 78 78 92 109 125 135 140
345 341 341 341 338 337 337 336 334 335 334 332 331 330 328 328 327 324 324 323 323 323 324 329 332 334 335 340 341 338 333 308 292 272 270 250 237 284 329 321 322 266 207 201 183 153 172 183 175 103 161 130 200 188 182 236 164 229 137 217 226 185 191 199 164 194 213 169 220 226 240 158 227 162 237 165 174 128 144 130 102 114 127 127 131 137 143 149
342 340 338 338 337 334 335 334 333 331 331 331 327 328 327 326 324 325 322 322 320 320 321 325 329 333 333 342 343 335 324 289 280 229 184 74 26 8 357 346 344 224 176 197 172 159 185 193 340 123 109 176 217 155 171 226 158 250 202 223 205 197 155 242 198 189 212 187 217 196 100 148 238 209 131 194 351 238 248 180 158 155 149 148 150 149 153 156
342 338 338 336 336 336 333 334 334 331 329 326 326 324 325 326 325 322 324 320 322 318 318 320 327 329 334 341 340 357 327 320 279 135 153 32 14 18 4 1 10 97 147 147 136 38 88 153 135 44 114 187 182 165 232 214 201 127 229 170 174 115 188 249 211 220 201 159 203 90 163 224 267 183 164 146 187 246 208 191 172 156 156 154 157 160 157 160
339 339 338 336 335 335 334 334 332 331 328 326 324 324 322 323 323 322 320 321 320 319 318 319 323 327 330 349 333 354 322 255 38 268 289 10 12 16 9 5 20 79 111 137 176 162 141 273 116 147 175 140 196 188 244 187 176 235 183 223 149 199 174 245 185 229 170 183 185 177 221 186 112 253 330 127 174 239 203 204 167 166 166 160 152 153 161 163
339 338 336 334 332 333 332 331 332 330 330 325 324 324 322 320 319 320 319 319 319 319 316 317 319 322 333 344 307 145 239 264 302 246 297 342 16 10 7 1 15 40 78 1 224 140 178 150 153 188 126 195 270 207 259 187 221 248 231 103 207 139 212 237 188 219 201 186 221 203 65 154 126 226 76 54 268 268 248 189 160 150 151 151 157 169 166 169
340 337 334 332 329 328 329 328 328 328 326 326 323 322 324 320 319 316 318 315 317 316 316 313 317 319 333 10 345 290 256 249 257 268 298 334 22 3 357 13 18 15 75 263 261 209 150 158 168 146 172 174 219 176 205 219 223 217 232 229 289 208 214 249 237 283 248 233 238 276 255 243 179 206 78 351 299 352 111 128 138 147 150 156 160 166 165 163
337 335 333 332 329 328 327 326 325 323 323 321 319 320 318 318 316 317 312 313 311 313 310 311 308 315 341 63 297 302 253 255 280 285 348 19 356 357 4 2 8 19 336 341 338 252 158 214 163 181 207 197 213 178 192 174 254 212 226 159 251 270 227 238 252 245 223 266 182 217 244 262 242 173 51 296 340 138 126 131 143 149 155 166 174 173 168 170
334 335 335 334 334 331 328 326 323 321 319 320 319 314 314 314 315 312 311 309 309 309 308 306 306 307 352 82 332 274 270 302 9 20 357 347 348 341 357 16 1 357 7 331 338 345 208 219 178 189 101 272 170 217 160 194 224 184 174 211 214 243 253 267 205 243 233 224 139 194 263 267 245 171 258 273 186 136 137 142 153 158 166 169 172 174 174 170
336 334 335 335 332 332 329 326 325 322 323 318 316 313 310 311 309 304 302 303 304 305 306 301 300 306 239 158 200 247 323 348 352 343 336 320 325 330 313 329 349 342 336 314 285 252 257 263 265 122 55 218 109 238 211 226 249 223 181 186 217 227 248 242 202 262 103 262 180 169 242 234 280 185 208 180 172 156 144 153 159 169 169 169 170 175 179 184
335 333 332 330 331 329 330 326 324 322 321 321 318 314 311 306 301 297 292 294 297 298 300 301 294 281 237 237 235 229 340 313 301 307 305 306 298 287 293 295 292 284 308 287 285 276 275 280 311 265 203 154 242 103 258 226 181 253 137 211 226 217 232 234 234 229 153 262 169 170 237 258 196 213 196 166 164 163 154 155 166 171 174 170 172 174 181 184
332 331 331 330 329 329 327 327 325 323 324 322 320 316 312 308 301 293 291 291 292 294 295 295 296 145 267 265 251 259 262 276 292 300 297 277 284 284 281 277 263 238 222 228 248 236 209 233 249 270 267 356 210 151 287 117 188 164 153 144 227 199 242 228 217 222 161 239 143 129 233 239 235 239 182 162 162 161 154 155 167 173 172 174 175 180 182 180
332 330 329 329 331 331 330 327 326 325 323 323 321 317 316 310 302 295 289 289 290 290 288 288 279 187 227 252 292 308 271 254 271 291 276 281 280 278 271 255 245 233 206 213 238 252 260 254 272 255 296 229 243 326 21 351 87 177 197 133 202 162 259 192 197 183 195 185 164 158 232 279 267 277 187 170 164 159 164 167 170 172 174 178 181 184 189 192
331 331 331 332 332 331 329 327 325 325 323 319 319 318 313 308 299 292 289 290 285 285 281 285 93 265 255 271 306 260 252 263 261 250 258 275 239 303 261 243 237 228 209 210 217 209 216 198 212 222 260 209 278 349 334 204 355 164 128 213 184 194 279 274 191 173 194 236 161 145 243 244 247 242 193 172 173 167 168 171 172 170 175 178 174 183 189 193
331 333 332 332 332 330 328 326 323 320 320 319 317 316 312 301 294 288 289 287 285 276 275 244 227 193 272 285 261 321 295 206 250 241 251 192 207 225 240 286 324 269 172 224 217 236 221 155 160 183 271 134 195 150 2 49 255 253 203 120 197 172 241 351 220 179 186 172 187 182 214 289 282 205 191 183 173 174 169 171 166 175 176 174 181 182 185 182
332 333 334 333 331 329 328 324 323 320 321 320 317 314 308 295 293 299 298 292 272 251 164 197 174 174 246 200 336 276 254 229 259 319 279 189 190 207 124 230 238 236 195 244 207 194 182 158 206 152 216 211 142 144 133 225 262 224 177 186 180 180 156 214 301 198 182 184 204 206 201 230 265 180 173 182 182 177 172 172 172 176 181 187 184 186 188 190
334 334 332 332 330 328 326 325 323 323 323 320 320 315 302 294 303 326 358 26 75 92 70 41 66 247 259 257 263 249 20 298 319 294 284 249 193 205 194 220 254 234 142 152 143 157 172 178 162 203 145 204 165 175 185 206 189 154 152 129 122 126 177 196 178 242 164 193 190 167 194 234 36 182 179 177 182 181 183 179 176 179 181 184 189 192 193 194
333 332 330 329 329 327 326 327 325 325 323 321 320 306 292 307 15 76 69 89 64 31 53 197 175 176 226 169 249 308 288 246 296 288 295 294 192 187 170 205 297 213 152 160 246 165 172 172 139 155 192 192 202 187 174 145 136 165 145 169 151 153 186 197 208 240 166 182 195 166 186 217 178 188 202 190 181 185 192 190 182 176 180 185 193 196 192 203
332 331 332 330 329 327 328 326 327 326 326 324 336 320 21 16 1 344 352 21 195 188 213 166 207 257 304 294 257 196 279 306 298 236 246 292 76 128 160 147 185 208 170 184 153 193 135 189 197 204 201 194 174 180 195 228 142 143 142 155 170 148 201 226 200 170 182 134 192 175 175 199 191 191 192 191 180 172 172 173 178 186 184 191 198 199 198 202
332 332 330 327 328 326 328 327 326 328 326 336 319 24 39 11 348 325 305 246 241 235 239 241 209 219 236 253 278 313 328 309 197 279 251 273 306 276 238 140 165 165 204 146 154 237 156 207 221 192 186 173 174 153 198 268 28 131 152 167 192 169 179 209 185 212 175 166 221 174 178 205 203 198 190 180 173 187 186 187 190 190 193 195 196 198 198 196
332 331 330 329 328 329 329 328 329 327 341 102 54 92 229 200 198 216 346 295 232 227 236 239 239 245 242 246 257 306 306 288 284 261 271 176 203 172 215 150 181 185 140 142 137 166 200 215 186 170 190 145 150 162 189 207 211 24 142 171 158 223 182 240 211 196 193 163 230 180 176 209 233 208 164 183 191 199 194 190 191 186 192 194 198 199 189 173
331 332 330 329 329 328 331 329 329 331 26 19 69 294 235 229 114 92 148 264 285 216 230 230 236 241 250 253 261 136 219 237 262 273 167 141 160 191 150 169 176 148 151 183 188 175 208 221 157 172 140 142 148 162 172 215 138 107 72 116 185 219 158 206 227 141 178 151 179 177 174 170 21 75 186 234 204 204 192 205 238 212 198 194 196 188 183 187
329 329 328 326 329 333 329 327 323 27 44 255 273 230 244 187 139 125 172 288 298 296 189 224 217 228 239 234 200 189 202 230 159 271 196 160 155 186 149 174 148 169 191 190 197 190 203 179 157 160 165 142 160 163 169 200 212 221 141 167 144 169 205 139 207 128 118 30 100 100 80 356 162 164 205 225 145 175 169 193 220 219 220 222 193 200 200 192
329 329 327 325 330 330 330 323 354 347 309 286 241 250 227 240 164 172 106 281 236 261 183 283 161 234 240 154 125 170 216 246 216 232 201 167 187 146 221 155 149 205 196 175 176 226 259 268 156 165 170 169 152 172 183 178 186 192 238 197 199 178 178 184 109 123 107 134 242 144 115 247 202 210 206 184 145 209 183 192 213 208 194 186 197 202 196 199
328 326 325 324 327 329 327 317 281 247 338 286 235 222 182 171 167 130 107 298 287 265 139 267 133 286 124 216 141 194 109 255 201 221 219 204 198 164 154 199 175 199 170 155 180 204 205 271 175 170 173 171 166 174 183 169 181 141 246 196 206 168 137 125 93 116 158 175 231 195 171 249 245 214 211 202 205 212 186 206 208 211 209 203 207 201 196 195
324 324 322 323 326 334 329 298 201 294 324 303 228 224 305 229 139 118 29 253 274 171 188 69 69 150 140 200 168 150 107 271 163 187 199 234 209 235 156 194 144 113 145 136 160 235 162 233 213 185 170 175 170 177 198 170 152 208 241 180 183 150 201 169 100 120 204 234 304 117 147 149 256 237 207 201 202 205 207 216 214 210 215 211 206 198 199 195
323 322 322 322 322 326 285 291 292 266 237 233 119 115 51 90 103 312 109 337 290 80 229 197 226 117 266 158 175 193 204 39 46 228 192 176 197 315 134 188 157 164 165 168 192 61 164 213 193 195 182 181 192 174 153 155 159 212 237 159 185 193 198 109 108 119 169 132 226 244 165 173 237 271 183 170 194 217 221 217 219 213 212 215 206 204 195 194
322 321 321 320 318 316 293 240 235 253 223 233 71 69 87 106 233 90 81 255 136 179 38 95 275 265 176 134 192 223 288 353 38 347 166 143 199 141 170 210 162 161 180 184 169 262 179 200 195 179 184 191 157 159 158 158 147 224 173 159 167 172 110 136 82 100 320 89 233 202 191 176 284 276 124 173 196 208 217 217 219 213 209 208 207 203 192 185
322 321 319 320 318 298 304 255 227 236 244 142 15 86 118 88 307 221 45 254 47 279 173 288 301 294 154 144 232 223 257 321 292 56 168 154 200 227 261 138 140 155 173 165 201 206 191 194 170 178 196 171 148 178 163 163 180 136 114 110 66 49 109 48 71 105 51 253 249 203 199 136 237 236 176 165 201 195 210 222 220 212 212 210 209 199 185 182
322 319 318 317 293 302 282 267 251 228 216 207 117 122 101 63 209 156 232 257 69 232 55 267 205 357 243 192 218 205 222 295 300 195 154 177 117 196 191 109 85 117 108 139 180 246 261 280 175 201 134 167 151 168 190 170 171 138 147 138 105 53 33 59 349 48 184 247 260 222 183 142 196 295 240 212 196 196 194 208 210 202 204 201 194 192 184 180
320 319 316 313 277 223 211 207 266 128 162 164 144 85 82 261 136 197 239 84 271 132 192 243 191 244 218 214 106 150 172 195 241 323 178 170 160 179 199 189 157 137 163 167 185 210 263 235 235 147 174 162 167 157 208 191 176 176 133 127 150 211 106 229 60 198 209 185 267 184 133 34 251 220 195 210 219 213 207 207 206 201 193 192 192 186 179 174
322 320 315 304 285 188 220 213 74 77 116 158 126 109 227 245 275 227 268 34 259 210 255 156 242 210 203 89 241 228 240 197 178 190 59 186 154 206 196 192 178 136 169 178 146 163 264 227 227 204 167 192 171 170 168 182 198 180 179 166 151 147 182 194 234 77 28 269 294 176 197 212 244 289 196 200 220 213 205 216 216 191 182 180 178 174 169 173
321 321 311 279 239 218 217 198 182 131 130 137 121 233 208 256 253 203 232 209 254 122 270 261 285 246 218 212 211 190 140 291 159 177 136 161 168 189 197 223 184 35 78 138 152 173 137 195 244 178 194 175 189 191 175 158 171 186 92 140 169 107 160 175 190 176 190 198 275 260 115 228 143 232 216 208 221 226 219 166 113 131 141 162 170 169 168 171
322 315 291 300 288 229 211 185 164 170 127 136 220 215 273 248 254 286 276 273 265 296 272 260 274 140 192 237 82 246 224 170 224 26 185 192 183 190 184 198 224 151 192 139 243 117 214 220 242 193 185 167 189 179 137 115 137 219 148 83 116 215 139 129 196 130 177 106 62 203 193 185 169 240 263 233 251 164 150 141 126 138 143 152 163 172 177 176
326 322 337 291 308 266 178 167 144 150 145 191 275 255 238 243 281 162 287 47 258 324 319 310 82 71 66 273 289 237 56 88 181 171 201 201 168 189 193 182 201 171 189 160 170 157 133 235 201 174 246 173 189 162 189 152 166 191 131 192 197 135 96 95 48 31 109 71 235 164 292 292 300 322 354 360 128 146 138 144 147 148 152 157 169 173 175 175
339 332 12 324 324 263 146 147 146 136 168 210 254 274 248 275 235 267 288 284 305 307 295 343 309 95 185 170 132 149 74 86 169 199 129 195 161 202 167 200 179 159 213 128 167 198 153 231 279 169 205 214 172 177 188 197 141 110 186 215 129 108 105 129 174 345 85 165 243 109 187 266 77 248 336 83 115 152 161 165 161 155 154 165 173 173 174 174
322 313 270 289 320 45 132 143 127 137 144 245 243 260 216 265 159 197 272 292 321 200 295 150 251 140 217 133 104 133 81 119 176 203 97 169 195 173 142 174 194 177 209 216 141 229 133 179 209 193 174 192 172 160 211 250 194 174 186 195 146 199 226 308 88 133 126 176 247 49 254 255 185 243 49 210 173 184 177 159 150 163 171 172 168 168 167 161
288 343 22 334 347 102 134 137 120 125 215 269 259 295 231 253 285 295 296 290 248 277 279 313 17 274 194 83 170 103 119 145 169 215 135 198 106 175 186 164 213 191 173 148 183 236 358 151 335 201 181 163 156 168 195 191 308 199 125 167 190 108 151 114 201 172 124 228 105 266 50 212 213 231 201 194 190 183 171 164 183 180 175 168 166 167 168 171
353 21 356 322 0 106 156 132 94 174 220 275 300 268 283 289 301 298 289 307 280 193 280 313 349 319 33 230 184 135 115 230 171 238 120 194 78 172 181 193 197 176 165 169 176 168 308 133 157 203 178 127 187 193 196 180 164 178 172 172 174 82 208 115 57 127 186 168 175 156 231 276 250 215 196 206 185 182 176 185 188 180 175 170 167 167 172 174
314 132 324 356 78 160 205 185 261 260 266 250 238 264 301 272 316 296 308 291 229 251 255 301 321 31 223 5 13 36 132 228 201 192 149 156 158 144 221 193 192 161 141 134 220 207 355 11 160 144 119 190 201 201 166 166 168 146 133 180 157 99 118 168 236 17 90 73 217 127 224 266 262 207 227 212 191 184 191 185 178 174 171 168 166 167 167 169
357 52 309 345 18 300 307 315 258 234 281 300 331 322 301 310 311 295 319 306 185 246 154 276 243 278 76 11 240 26 146 211 237 150 193 162 209 193 204 213 174 170 148 186 184 212 152 169 90 162 198 184 179 145 153 155 154 157 153 195 170 135 110 115 165 239 31 263 128 163 139 254 242 279 245 165 180 192 170 36 165 171 166 163 164 162 163 165
26 260 263 314 322 160 312 257 260 318 286 283 307 286 279 278 245 273 298 326 345 325 283 289 349 337 240 190 300 248 189 12 91 120 244 205 196 211 180 192 175 167 156 139 152 232 165 254 302 332 30 345 354 109 148 156 140 135 228 143 150 180 170 156 163 187 174 197 344 294 211 250 286 303 255 129 131 119 120 135 127 138 146 154 156 159 159 156
314 304 315 290 333 149 66 10 331 337 319 300 302 278 269 262 306 316 329 328 356 335 25 319 317 217 253 192 213 255 201 85 271 221 299 13 258 187 195 180 163 186 165 213 162 214 134 278 120 133 110 71 34 46 105 178 161 193 197 189 185 151 134 145 100 44 156 217 171 129 219 280 282 317 14 111 119 131 135 140 143 148 153 156 159 161 156 149
290 246 229 292 3 70 63 226 284 318 322 317 327 323 343 322 232 283 305 308 329 200 318 278 226 277 271 117 230 247 265 177 141 282 164 205 238 190 178 168 182 187 216 208 248 150 188 199 114 141 156 156 164 165 182 184 192 173 156 156 185 172 165 110 201 86 180 260 120 159 254 253 276 335 92 118 117 110 129 135 140 146 152 158 158 163 160 151
19 17 318 317 354 10 116 148 182 325 314 335 334 325 333 333 332 335 274 299 251 323 198 252 329 168 251 345 321 356 6 350 119 228 46 330 306 345 117 173 176 209 231 226 204 104 209 122 131 155 168 184 192 186 347 68 94 164 180 170 190 197 176 145 110 114 198 203 187 232 189 263 293 138 151 160 139 141 140 148 151 155 155 153 152 155 160 157
263 50 326 340 319 170 341 290 331 350 322 322 307 322 332 338 317 309 69 310 357 339 314 223 7 4 354 340 352 2 352 353 359 85 14 287 263 288 23 115 155 227 239 250 240 79 18 317 228 176 191 191 172 162 162 150 147 139 140 186 186 174 165 149 151 202 178 106 234 269 208 178 251 207 202 182 158 141 148 148 148 149 153 155 157 152 145 151
42 275 334 41 296 310 342 343 346 320 308 310 268 295 327 332 342 351 326 110 322 321 2 306 5 9 354 342 316 55 321 26 30 21 325 319 346 352 80 80 163 239 240 259 131 193 161 215 270 141 227 250 249 149 157 142 148 153 157 158 175 181 151 171 206 208 146 156 199 242 164 199 258 220 206 194 164 172 171 167 156 144 137 140 149 152 151 151
41 333 276 2 321 296 278 280 304 309 310 313 298 329 336 336 331 343 312 312 332 331 23 344 343 353 346 328 356 74 358 67 352 340 6 339 12 19 82 108 251 324 289 237 249 181 90 257 198 196 145 18 306 155 149 147 135 136 161 170 160 150 176 184 196 191 185 224 212 203 167 219 232 300 173 181 152 112 112 121 130 147 158 155 150 155 154 155
25 342 333 321 259 287 282 291 295 311 319 330 343 340 332 323 324 335 335 320 318 317 328 325 327 337 332 333 351 57 298 318 13 311 345 15 347 36 114 115 288 312 351 245 176 274 134 272 166 163 91 22 357 327 148 140 139 103 61 117 158 161 124 120 113 137 87 357 16 85 146 266 270 201 147 136 126 113 117 142 152 152 148 154 157 160 158 156
319 281 289 308 313 295 298 304 321 318 307 335 352 331 333 332 329 326 299 233 248 302 321 317 312 319 330 334 13 240 210 261 278 250 287 311 311 357 55 253 72 303 320 341 48 301 128 259 60 68 85 41 352 99 146 134 123 108 98 93 118 130 135 185 140 204 154 190 92 80 25 268 268 196 120 123 132 141 149 151 154 161 161 158 159 160 160 159
306 268 278 292 292 308 320 314 308 304 338 354 341 327 332 315 312 323 318 225 242 250 267 300 310 314 305 339 323 278 272 240 248 243 241 243 248 274 257 255 234 246 304 261 273 256 196 135 119 113 85 290 295 130 126 112 91 94 184 201 174 215 136 135 351 134 220 148 121 138 227 224 183 164 121 146 143 153 148 163 158 159 161 160 160 161 162 165